[[{"header":{"parameterUnit":"m.s-1","parameterCategory":1,"la1":30.2991,"la2":30.254,"lo1":-89.0895,"lo2":-89.0444,"dy":0.0017,"dx":0.0017,"nx":28,"ny":28,"refTime":"2025-04-25T03:00:00:Z","depth":0,"parameterNumber":2,"parameterNumberName":"U-component_of_WINDS"},"data":[0,0,0,0,0,0,0,0,0,0,0,0,0,0,0,0,0,0,0,0,0,0,0,0,0,0,0,0,0,0,0,0,0,0,0,0,0,0,0,0,0,0,0,0,0,0,0,0,0,0,0,0,0,0,0,0,0,0,0.4371,0.4371,0,0.4372,0.4372,0.4372,0.4361,0.4361,0.436,0.436,0.4361,0.4361,0.4361,0,0,0,0,0,0,0,0,0,0,0,0,0,0.4358,0.4358,0.4371,0.4371,0.4371,0.4372,0.4372,0.4372,0.4361,0.4361,0.436,0.436,0.4361,0.4361,0.4361,0,0,0,0,0,0,0,0,0,0,0,0,0,0.4362,0.4358,0.4371,0.4366,0.4365,0.4372,0.4372,0.4372,0.4361,0.4361,0.436,0.436,0.436,0.4361,0.4361,0.4373,0,0,0.4363,0.4363,0,0,0,0,0,0,0,0,0.4362,0.4362,0.4366,0.4366,0.4366,0.4366,0.4368,0.4373,0.4361,0.4363,0.436,0.436,0.4363,0.4363,0.4364,0.4373,0.4373,0.4363,0.4363,0.4363,0.4363,0,0,0,0,0,0,0,0.4361,0.4362,0.4371,0.4367,0.4366,0.4363,0.4363,0.4369,0.4365,0.4363,0.4362,0.4362,0.4362,0.4364,0.4364,0.4373,0.4363,0.4363,0.4363,0.4364,0.4391,0.4392,0,0,0,0,0,0,0.4362,0.4362,0.4371,0.4372,0.4362,0.4363,0.4363,0.4366,0.4365,0.4365,0.4362,0.4361,0.4363,0.4364,0.4364,0.4377,0.4363,0.4364,0.4364,0.4391,0.4391,0.4392,0,0,0,0,0,0,0.4362,0.4363,0.4371,0.4367,0.4367,0.4364,0.4367,0.4367,0.4368,0.4365,0.4364,0.4365,0.4363,0.4363,0.4371,0.4377,0.4364,0.4364,0.439,0.4391,0.4392,0.4405,0,0,0,0,0,0,0.4361,0.4363,0.4368,0.4367,0.4368,0.4379,0.4368,0.4367,0.4369,0.4368,0.4367,0.4366,0.4363,0.437,0.4371,0.4378,0.4365,0.439,0.4391,0.4391,0.4404,0.4406,0.4407,0,0,0,0,0,0.4361,0.4372,0.4368,0.4369,0.4374,0.4379,0.438,0.4375,0.4369,0.4374,0.4372,0.4366,0.4376,0.4371,0.4372,0.4379,0.4389,0.439,0.4391,0.4403,0.4405,0.4407,0,0,0,0,0,0,0.4373,0.4371,0.4368,0.4378,0.4379,0.4377,0.4383,0.4378,0.4381,0.4379,0.4374,0.4373,0.4382,0.4381,0.4375,0.439,0.4382,0.4383,0.439,0.4392,0.4394,0.4394,0.4365,0,0,0,0,0,0.4377,0.4382,0.438,0.4389,0.439,0.4386,0.4389,0.4385,0.4386,0.4386,0.4384,0.4385,0.4388,0.439,0.4393,0.4403,0.4403,0.4408,0.441,0.4412,0.4413,0.4418,0.442,0.4395,0.4395,0.4395,0,0,0.4386,0.4385,0.4389,0.4392,0.4392,0.4397,0.4387,0.4392,0.4395,0.4387,0.4393,0.4392,0.4392,0.4401,0.4405,0.4401,0.4419,0.4413,0.4414,0.4415,0.4419,0.4421,0.4423,0.4396,0.4396,0.4396,0,0,0.4403,0.4403,0.4411,0.4411,0.4411,0.4409,0.4411,0.4409,0.4408,0.4415,0.4408,0.4412,0.4418,0.4418,0.4418,0.4435,0.4429,0.4436,0.4446,0.445,0.4452,0.4454,0.4459,0.4461,0.4437,0.4437,0.4437,0,0.4413,0.442,0.4415,0.4421,0.4422,0.4414,0.4422,0.4422,0.4423,0.4424,0.4419,0.4426,0.4425,0.4434,0.4438,0.4439,0.444,0.4436,0.4452,0.4454,0.4455,0.446,0.4462,0.4438,0.4438,0.4437,0.4437,0,0.4432,0.4437,0.4443,0.4444,0.4446,0.4453,0.4448,0.4451,0.4447,0.4445,0.4451,0.445,0.4452,0.4454,0.445,0.4461,0.4459,0.4453,0.4445,0.4459,0.4463,0.4465,0.4439,0.4438,0.4438,0.4438,0,0,0.4458,0.4456,0.4458,0.4458,0.4457,0.4461,0.4466,0.4468,0.447,0.4471,0.4475,0.448,0.4475,0.4476,0.4472,0.4476,0.4488,0.447,0.447,0.4473,0.4499,0.4503,0.4505,0.4484,0.4485,0.4485,0.4499,0,0.4474,0.4484,0.4479,0.449,0.4493,0.4485,0.449,0.449,0.4488,0.449,0.4488,0.4491,0.4484,0.4485,0.4488,0.4486,0.4493,0.4485,0.4487,0.4488,0.4487,0.4508,0.4512,0.4525,0.4501,0.4501,0.4501,0,0.4495,0.4496,0.4507,0.4504,0.4506,0.451,0.4511,0.4514,0.4513,0.4511,0.4512,0.4507,0.4512,0.4504,0.451,0.4504,0.4505,0.4504,0.4504,0.4504,0.4495,0.4507,0.4529,0.4531,0.4504,0.4504,0.4503,0,0.4512,0.4516,0.4523,0.4523,0.4521,0.4524,0.4523,0.4522,0.4523,0.4524,0.4524,0.4526,0.4526,0.4527,0.4523,0.4517,0.4529,0.4521,0.4527,0.4527,0.453,0.4529,0.4551,0.4531,0.4531,0.4531,0.4531,0,0.453,0.4537,0.453,0.4534,0.4541,0.4535,0.4542,0.454,0.4539,0.4542,0.4536,0.4539,0.4532,0.4534,0.4531,0.4536,0.4536,0.4534,0.4533,0.4535,0.4535,0.4535,0.4534,0.4531,0.4531,0.4531,0.4531,0,0.455,0.4546,0.4553,0.455,0.4549,0.4554,0.4551,0.4555,0.4552,0.4556,0.4556,0.4552,0.4554,0.4549,0.4551,0.4548,0.4555,0.4553,0.4556,0.4555,0.4561,0.456,0.4583,0.4586,0.4564,0.4565,0.4565,0,0.4562,0.4567,0.4564,0.4566,0.4565,0.4568,0.4569,0.4563,0.4565,0.4564,0.4567,0.4569,0.4569,0.4573,0.457,0.4571,0.4568,0.4576,0.4568,0.4569,0.4567,0.4567,0.4567,0.4577,0.4578,0.4578,0.4578,0,0.4583,0.4581,0.4583,0.4584,0.4585,0.4586,0.4586,0.4587,0.4581,0.4583,0.4585,0.4586,0.4587,0.4588,0.4588,0.4587,0.4581,0.4581,0.4582,0.4583,0.4585,0.4583,0.456,0.458,0.458,0.458,0.458,0.458,0.4599,0.4603,0.4601,0.4603,0.4603,0.4602,0.4605,0.4602,0.4604,0.4605,0.4601,0.4604,0.4602,0.4601,0.4601,0.4602,0.4599,0.4601,0.4601,0.4602,0.4602,0.4585,0.4602,0.4602,0.4602,0.4602,0.4602,0,0.462,0.4618,0.462,0.462,0.4621,0.4616,0.4616,0.4617,0.4619,0.4618,0.4619,0.4621,0.4622,0.4619,0.4619,0.4621,0.4618,0.4621,0.4621,0.462,0.4606,0.4605,0.4623,0.4623,0.4623,0.4623,0.4623,0.4623,0.4631,0.4636,0.4633,0.4638,0.4636,0.4639,0.4639,0.4638,0.4637,0.464,0.464,0.4638,0.4636,0.4636,0.4636,0.4635,0.4636,0.4639,0.4637,0.4624,0.4622,0.462,0.4618,0.4639,0.4639,0.4651,0.4651,0.4652]},{"header":{"parameterUnit":"m.s-1","parameterCategory":1,"la1":30.2991,"la2":30.254,"lo1":-89.0895,"lo2":-89.0444,"dy":0.0017,"dx":0.0017,"nx":28,"ny":28,"refTime":"2025-04-25T03:00:00:Z","depth":0,"parameterNumber":3,"parameterNumberName":"V-component_of_WINDS"},"data":[0,0,0,0,0,0,0,0,0,0,0,0,0,0,0,0,0,0,0,0,0,0,0,0,0,0,0,0,0,0,0,0,0,0,0,0,0,0,0,0,0,0,0,0,0,0,0,0,0,0,0,0,0,0,0,0,0,0,1.2409,1.241,0,1.2422,1.2422,1.2422,1.2404,1.2404,1.2403,1.2402,1.2414,1.2415,1.2416,0,0,0,0,0,0,0,0,0,0,0,0,0,1.2369,1.237,1.2409,1.241,1.241,1.2422,1.2422,1.2422,1.2404,1.2404,1.2403,1.2402,1.2414,1.2415,1.2416,0,0,0,0,0,0,0,0,0,0,0,0,0,1.2384,1.237,1.2409,1.2402,1.2402,1.2422,1.2422,1.2422,1.2404,1.2404,1.2403,1.2402,1.2413,1.2415,1.2416,1.2443,0,0,1.242,1.2421,0,0,0,0,0,0,0,0,1.2383,1.2386,1.2403,1.2403,1.2402,1.2411,1.2412,1.2429,1.2405,1.2403,1.2402,1.2401,1.2413,1.2415,1.2419,1.2443,1.2444,1.242,1.2421,1.2421,1.2422,0,0,0,0,0,0,0,1.2382,1.2385,1.2414,1.2403,1.2403,1.2398,1.2399,1.2415,1.2414,1.2403,1.2402,1.2404,1.2413,1.2418,1.2419,1.2444,1.242,1.2421,1.2422,1.2423,1.2491,1.2492,0,0,0,0,0,0,1.2382,1.2384,1.2414,1.2415,1.239,1.24,1.2401,1.2409,1.2413,1.2413,1.2405,1.2403,1.2416,1.2418,1.242,1.2452,1.2421,1.2423,1.2423,1.249,1.2492,1.2493,0,0,0,0,0,0,1.2382,1.2385,1.2413,1.2399,1.2402,1.2401,1.241,1.241,1.2414,1.2414,1.2414,1.241,1.2415,1.2418,1.2437,1.2452,1.2423,1.2425,1.2489,1.2491,1.2492,1.2516,0,0,0,0,0,0,1.238,1.2385,1.2396,1.24,1.2403,1.2431,1.2411,1.241,1.2417,1.2415,1.2419,1.2419,1.2415,1.2435,1.2439,1.2453,1.2426,1.2488,1.249,1.2492,1.2514,1.2518,1.2522,0,0,0,0,0,1.2379,1.2402,1.2396,1.24,1.2417,1.2432,1.2434,1.2429,1.2418,1.2429,1.2429,1.2419,1.245,1.2438,1.2441,1.2456,1.2487,1.2489,1.2491,1.2512,1.2518,1.2522,0,0,0,0,0,0,1.2399,1.2402,1.2396,1.2421,1.2426,1.2429,1.2442,1.2435,1.2444,1.2442,1.2435,1.2436,1.2457,1.2458,1.2445,1.2483,1.2466,1.2469,1.2481,1.2486,1.249,1.2489,1.2427,0,0,0,0,0,1.2406,1.2419,1.2421,1.2442,1.2446,1.2444,1.245,1.2446,1.2451,1.2454,1.2455,1.246,1.2471,1.2479,1.2489,1.2514,1.2515,1.2526,1.253,1.2533,1.2536,1.255,1.2555,1.25,1.25,1.25,0,0,1.2421,1.2425,1.2433,1.2447,1.2451,1.2464,1.2446,1.246,1.247,1.2456,1.2475,1.2476,1.2481,1.2504,1.2514,1.2506,1.2551,1.2536,1.2539,1.254,1.2553,1.2558,1.2563,1.2502,1.2502,1.2501,0,0,1.2456,1.246,1.2478,1.2482,1.2489,1.2487,1.2492,1.2496,1.2496,1.2515,1.2504,1.2515,1.2534,1.2539,1.2543,1.2579,1.2571,1.2583,1.2604,1.2617,1.2621,1.2625,1.2638,1.2643,1.2586,1.2586,1.2586,0,1.2474,1.2494,1.2488,1.2504,1.251,1.2498,1.2516,1.2521,1.253,1.2534,1.2525,1.2548,1.2551,1.2575,1.2584,1.2588,1.2593,1.2583,1.2621,1.2625,1.2628,1.2641,1.2646,1.2587,1.2587,1.2587,1.2587,0,1.2516,1.253,1.2544,1.2553,1.2561,1.2578,1.2575,1.2583,1.2578,1.2577,1.2596,1.2599,1.261,1.2615,1.261,1.2638,1.2633,1.2622,1.2606,1.2635,1.2647,1.2651,1.2589,1.2589,1.2588,1.2588,0,0,1.2563,1.257,1.2575,1.2579,1.2585,1.2596,1.2612,1.2623,1.263,1.2636,1.265,1.2666,1.2657,1.2662,1.2657,1.2669,1.2698,1.2657,1.2657,1.2665,1.2729,1.2737,1.2742,1.2692,1.2693,1.2693,1.2728,0,1.2598,1.2627,1.2622,1.265,1.2662,1.2651,1.2665,1.267,1.267,1.268,1.2679,1.2691,1.2678,1.2681,1.2692,1.2692,1.271,1.2689,1.2704,1.2705,1.2704,1.2748,1.2757,1.279,1.2733,1.2734,1.2734,0,1.2642,1.2651,1.268,1.2684,1.2689,1.2702,1.2712,1.2722,1.2727,1.2726,1.2732,1.2725,1.2741,1.2724,1.2745,1.2731,1.2737,1.2738,1.2739,1.274,1.2722,1.2751,1.28,1.2805,1.2741,1.2741,1.274,0,1.2675,1.2694,1.2714,1.2717,1.2723,1.2732,1.2734,1.2739,1.2745,1.2753,1.2758,1.2767,1.2772,1.278,1.2775,1.2763,1.2798,1.278,1.2797,1.2797,1.2805,1.2805,1.2856,1.2808,1.2808,1.2808,1.2808,0,1.2714,1.2733,1.2728,1.274,1.276,1.2755,1.2774,1.2775,1.2779,1.2791,1.2782,1.2793,1.2786,1.2797,1.2794,1.2812,1.2814,1.2814,1.2813,1.2815,1.2815,1.2819,1.2817,1.281,1.2809,1.2809,1.2809,0,1.2754,1.2752,1.2773,1.2776,1.2777,1.2792,1.2794,1.2806,1.2804,1.282,1.2823,1.2821,1.2833,1.2829,1.2842,1.284,1.2864,1.2859,1.2862,1.2861,1.2878,1.2877,1.2934,1.2941,1.2889,1.2889,1.2889,0,1.278,1.2793,1.2798,1.2806,1.2809,1.2821,1.2828,1.2823,1.283,1.2837,1.2848,1.2859,1.2868,1.2888,1.2887,1.2897,1.2893,1.2913,1.2895,1.2896,1.2894,1.2893,1.2895,1.2916,1.2917,1.2917,1.2918,0,1.2825,1.2824,1.2834,1.2844,1.2853,1.2861,1.2867,1.2874,1.2869,1.2878,1.289,1.2897,1.291,1.2922,1.2931,1.2933,1.2925,1.2923,1.2928,1.2931,1.2932,1.2932,1.2872,1.2922,1.2922,1.2921,1.2921,1.2921,1.2859,1.2871,1.2876,1.2888,1.2893,1.2899,1.291,1.291,1.2921,1.2932,1.2928,1.2942,1.2947,1.2958,1.2961,1.2972,1.2965,1.2971,1.2973,1.2974,1.2977,1.293,1.2973,1.2973,1.2973,1.2973,1.2973,0,1.2905,1.2908,1.2919,1.2929,1.2938,1.293,1.2937,1.2945,1.2958,1.2963,1.2972,1.2986,1.2997,1.2998,1.3008,1.3016,1.3013,1.3019,1.3019,1.3019,1.2983,1.2978,1.3022,1.3022,1.3022,1.3022,1.3022,1.3022,1.293,1.2949,1.2948,1.297,1.2972,1.2987,1.2992,1.2997,1.3001,1.3018,1.3027,1.3028,1.3031,1.3041,1.3051,1.305,1.3055,1.3063,1.3061,1.3027,1.3022,1.3017,1.3013,1.3063,1.3064,1.3097,1.3097,1.3097]}]]